Location: Bothwell
(42.3833°S, 147.0000°E)
Time: 19:48:34
(UTC+11:00)

CUBESAT XI-V - Pass Details

Date: 04 October 2022
Orbit: 666 x 689 km, 98.1° (Epoch: 25 November)

Event Time Altitude Azimuth Distance (km) Brightness Sun altitude
Rises 03:03:23 0° 157° (SSE) 3,093 ? -35.8°
Reaches altitude 10° 03:05:54 10° 145° (SE) 2,171 ? -35.5°
Enters shadow 03:08:32 25° 117° (ESE) 1,416 ? -35.2°
